Temp
10 10 10 9 9 9 9 9 8 8 8 8 8 8 8 8 8 8 8 8 8 8 8 8 8 8 8 8 7 7 7 7 7 7 7 7 7 7 8 8 8 8 8 9 8 8 8 8 9 8 8 8 8 8 8 8 8 8 8 8 9 9 9 9 9 10 10 10 10 11 11 12 13 14 15 15 16 16 16 15 15 15 15 15 15
10 10 9 9 9 9 9 8 8 8 8 8 8 8 8 8 8 8 8 8 8 8 7 7 7 8 8 8 7 7 7 7 7 7 7 7 7 7 7 8 8 8 8 8 8 8 8 8 8 8 8 8 8 8 8 7 7 7 7 7 8 8 8 8 9 9 10 10 10 10 11 12 12 13 13 14 15 15 15 15 15 15 15 15 15
10 10 9 9 9 9 8 8 8 8 8 8 8 8 8 8 8 8 8 7 7 7 7 7 7 7 8 7 7 7 7 7 7 7 7 7 7 7 7 7 7 8 8 8 8 8 8 8 8 8 8 8 8 7 7 7 6 6 6 7 7 7 7 7 7 8 9 9 10 10 11 11 11 11 12 13 14 15 14 15 15 15 15 15 15
11 10 9 9 9 8 8 8 8 8 8 8 8 8 8 8 8 8 8 7 7 7 7 7 7 7 7 7 7 7 7 6 6 6 6 6 7 7 7 7 7 7 8 8 8 7 8 8 8 8 8 8 7 7 6 6 6 6 6 6 6 6 6 7 7 7 8 8 9 10 10 11 11 11 11 12 13 14 14 14 15 15 15 15 15
10 10 9 9 9 8 8 8 8 8 8 8 8 8 8 8 7 8 8 8 8 7 7 7 7 7 7 7 7 7 6 6 6 6 6 6 6 7 7 7 7 7 7 7 7 7 7 7 8 8 7 7 6 6 5 5 5 6 6 6 6 6 6 6 6 7 7 8 8 9 10 10 11 11 12 12 12 13 14 14 15 15 15 15 15
10 9 9 9 9 8 8 8 8 8 8 8 8 8 8 7 7 8 8 8 8 8 7 7 7 7 7 7 6 6 6 5 5 5 5 6 6 7 7 7 7 7 7 7 7 7 7 7 7 7 6 5 5 5 5 4 5 5 5 5 5 5 5 6 6 6 7 7 8 8 9 10 11 12 12 12 12 12 13 14 14 15 15 15 14
9 9 9 9 9 8 8 8 8 8 8 8 8 8 7 8 8 8 7 8 8 7 7 7 7 7 7 6 6 6 5 5 4 4 5 5 6 6 7 7 7 7 7 7 7 7 7 7 7 6 5 5 4 4 4 4 4 4 4 4 4 5 5 5 6 6 7 7 7 8 9 9 10 11 12 12 13 13 12 13 13 14 15 15 15
9 9 9 9 9 8 8 8 8 8 8 8 8 7 7 7 8 7 7 7 7 7 7 7 7 7 6 6 6 5 5 4 3 3 3 4 5 6 7 7 7 7 7 7 7 7 7 7 7 6 5 4 4 3 3 3 3 3 3 4 4 4 4 5 5 6 6 6 7 8 8 9 10 10 11 12 13 14 13 13 13 14 15 15 15
9 9 9 9 8 8 8 8 8 8 8 8 8 8 8 7 7 7 7 7 7 7 7 7 7 7 6 6 5 5 4 4 3 2 2 2 4 6 7 7 7 7 7 7 7 7 7 7 6 5 4 4 3 3 3 3 3 3 3 3 3 3 4 4 4 5 5 6 6 7 8 8 9 9 10 11 12 13 13 12 12 13 14 15 15
9 9 9 9 9 8 8 8 8 8 8 8 8 8 8 8 7 7 7 7 7 7 7 6 6 6 6 6 5 5 4 3 3 3 3 2 3 5 7 7 7 7 7 7 7 7 6 6 5 5 4 4 4 3 3 3 2 2 2 2 2 2 3 3 3 4 4 5 6 6 7 7 7 8 9 9 10 11 12 12 12 12 13 14 15
9 9 9 9 9 9 8 8 8 8 8 8 8 8 8 8 7 7 7 7 7 7 6 6 6 6 6 6 5 5 4 3 3 4 3 3 3 5 6 7 7 7 7 7 6 6 6 5 5 5 5 4 4 4 4 3 2 2 2 2 2 2 2 3 3 4 4 4 5 5 5 6 6 6 7 8 8 9 10 11 12 12 12 13 14
9 9 9 9 9 8 8 8 8 8 9 8 8 8 8 8 8 7 7 7 6 6 6 6 6 6 6 6 5 4 3 3 3 3 3 4 4 5 6 6 7 7 7 6 6 6 5 5 5 5 4 4 4 4 4 3 2 2 2 2 3 3 3 3 3 3 3 4 4 4 5 5 5 6 6 7 7 8 9 10 10 11 12 12 13
9 9 9 8 8 8 8 8 8 8 8 8 8 8 8 8 7 7 7 7 6 6 6 6 6 6 6 6 5 4 3 3 3 3 3 4 4 5 6 6 6 7 6 6 6 5 5 4 4 5 5 5 5 4 3 2 2 2 2 3 4 4 4 3 3 3 3 4 4 4 4 5 5 5 5 6 6 7 7 8 9 10 11 12 12
8 8 8 8 8 8 8 8 8 8 8 8 8 8 8 7 7 7 7 7 6 6 6 6 5 5 5 5 5 4 3 3 3 3 3 4 5 5 6 6 6 7 7 6 6 6 5 5 5 5 5 5 4 3 2 2 2 2 3 4 4 4 3 3 4 4 3 3 3 4 4 4 4 4 5 5 5 6 6 7 8 8 9 10 11
8 8 9 9 9 9 9 9 9 9 8 8 8 8 7 7 7 7 7 7 7 6 6 6 5 5 5 5 5 5 3 3 3 3 3 4 5 6 6 6 6 7 7 7 7 6 6 5 5 5 5 5 4 2 1 1 1 2 3 4 4 3 3 3 3 3 3 3 3 3 3 3 3 3 3 4 4 5 5 6 6 7 8 8 9
9 9 9 9 9 9 9 9 9 9 8 8 8 8 7 7 7 7 7 7 7 6 6 6 6 5 5 5 5 5 4 3 3 3 3 4 5 6 6 6 7 7 7 7 7 7 6 5 5 5 5 4 3 2 1 1 1 3 3 3 3 3 3 3 3 2 2 2 1 1 1 2 2 2 2 2 2 3 4 4 5 6 7 7 8
10 10 10 10 9 9 9 9 9 9 8 8 8 7 7 7 7 7 7 7 7 7 6 6 6 5 5 5 5 5 4 3 3 3 3 4 4 5 6 6 7 7 7 7 7 7 7 5 5 4 4 3 3 2 2 1 2 3 3 3 3 2 2 2 2 1 1 1 1 1 1 2 2 2 2 2 2 2 2 3 4 5 6 7 8
10 10 10 10 9 9 9 9 9 9 8 8 8 7 7 7 7 7 7 7 7 7 7 7 6 6 5 4 4 5 4 3 3 3 3 4 4 5 6 6 6 7 7 7 7 7 6 5 5 4 3 3 3 3 2 2 2 2 2 2 2 2 2 1 1 1 1 2 2 2 2 2 2 2 2 3 3 3 2 2 3 4 5 6 8
10 10 10 9 9 9 9 9 9 8 8 8 8 7 7 7 7 7 8 8 8 7 7 7 6 6 5 5 4 4 4 4 3 3 3 3 4 4 5 5 6 6 7 7 7 7 6 5 5 4 3 3 3 3 3 2 2 2 2 2 1 1 1 1 1 1 2 2 2 2 2 2 2 2 3 3 4 4 4 3 3 4 5 6 7
10 10 9 9 9 9 9 9 8 8 8 8 7 7 7 7 7 7 8 8 8 7 7 7 7 6 6 5 5 4 4 4 3 3 3 3 3 4 5 5 5 6 7 7 7 7 6 5 5 4 3 3 3 3 3 2 2 2 2 1 0 0 0 0 1 1 1 1 2 2 2 2 2 2 2 3 4 4 5 5 4 4 4 5 7
10 9 9 9 9 9 9 8 8 8 8 8 7 7 7 7 7 8 8 8 8 7 7 7 7 7 6 6 5 5 4 4 4 3 3 3 3 3 4 4 3 4 6 7 6 6 6 5 5 4 3 3 3 3 3 3 2 3 2 1 0 1 1 1 1 1 1 1 2 2 2 1 1 2 2 2 3 4 5 6 5 5 4 5 6
9 9 9 9 9 9 8 8 8 8 8 8 8 7 7 7 7 8 8 8 7 7 7 8 8 7 7 7 6 5 5 4 4 4 4 3 3 3 3 3 3 4 6 6 6 6 5 5 4 4 3 3 3 3 4 3 3 3 2 1 1 1 1 1 1 1 1 1 1 1 1 1 1 1 1 1 2 3 4 5 6 6 5 5 6
9 9 9 9 9 8 8 8 8 8 8 8 8 8 8 8 8 8 8 8 8 8 8 8 8 8 8 7 7 6 6 5 4 4 4 3 3 3 3 3 3 3 5 6 5 5 5 4 4 3 3 3 4 4 4 4 3 3 2 2 2 2 1 1 1 1 1 1 1 1 1 0 0 0 0 0 1 3 4 5 6 6 6 5 6
10 9 9 9 9 8 8 8 8 8 8 8 8 8 8 8 8 8 8 8 9 9 8 8 8 8 8 8 7 7 7 6 5 4 4 3 3 3 3 3 3 3 4 5 5 4 4 4 3 3 3 4 4 4 4 4 4 3 3 3 2 2 1 1 1 1 1 1 0 0 0 0 0 0 0 0 1 3 4 5 7 7 7 7 7
10 9 9 9 9 9 8 8 8 8 8 8 8 8 8 8 9 9 8 9 9 9 9 9 8 8 8 8 8 7 7 7 6 5 4 3 4 4 4 4 3 3 4 5 4 4 4 4 4 4 4 4 4 5 5 5 4 4 4 3 3 2 1 1 1 1 0 0 0 0 0 0 -0 0 0 0 1 3 4 5 7 8 8 8 8
9 9 9 9 9 9 9 9 8 8 8 8 9 9 9 9 9 9 9 9 9 9 9 9 8 8 8 8 8 7 7 7 6 5 4 4 4 4 4 4 4 4 4 4 4 4 4 4 4 4 4 4 5 5 5 5 5 5 5 4 4 3 2 1 1 0 0 0 0 0 0 0 0 0 0 0 1 2 3 5 7 8 9 9 9
10 10 9 9 9 9 9 9 9 8 8 9 9 9 9 9 9 9 9 9 9 9 9 8 8 8 8 8 8 7 7 7 6 4 4 3 3 4 4 4 4 4 5 4 4 4 5 5 5 5 5 5 5 5 5 5 5 5 5 5 4 3 2 1 1 0 0 0 0 1 1 0 0 0 0 0 1 1 3 4 5 6 7 8 7
10 10 10 9 9 9 9 9 9 9 9 9 9 9 9 9 9 9 9 8 9 9 8 8 8 8 8 7 7 7 7 6 5 3 2 2 2 3 4 4 4 4 4 4 3 4 5 5 5 5 5 5 5 5 5 5 5 6 5 5 5 4 3 2 2 1 1 1 1 1 1 1 0 0 0 0 0 1 2 3 5 5 5 6 6
10 10 10 10 10 10 9 9 9 10 9 9 9 9 9 9 9 9 8 7 7 7 7 7 7 7 7 7 6 6 6 5 4 3 2 2 2 2 2 3 3 3 3 3 3 4 5 5 5 5 5 5 5 5 5 5 5 5 5 5 5 5 4 3 2 1 1 1 1 1 1 1 0 0 0 0 0 1 1 2 3 4 5 5 5
10 10 10 10 10 10 10 10 10 10 10 9 9 9 8 8 8 8 7 6 6 6 6 6 6 6 6 6 5 5 5 4 3 3 3 2 2 2 2 3 3 3 3 3 4 5 5 6 6 5 5 5 5 5 5 5 5 5 5 5 5 5 4 4 3 2 2 1 1 1 1 1 0 0 0 0 0 0 1 1 2 3 3 4 4
10 10 10 10 10 10 10 10 10 10 10 10 10 9 9 8 7 7 7 6 6 6 5 5 5 5 5 5 5 4 4 4 4 3 3 3 3 3 3 3 3 3 3 3 4 5 6 6 6 6 5 5 5 4 4 5 5 5 5 5 5 5 5 4 4 3 2 2 2 1 1 1 1 0 0 0 0 0 0 1 1 2 2 2 3
10 11 10 10 10 10 10 10 10 10 10 10 10 10 10 9 8 7 7 6 6 6 6 5 5 5 5 5 4 4 4 4 4 4 3 3 4 4 4 3 3 3 4 4 5 5 6 6 6 6 6 5 5 5 4 5 5 5 5 5 5 5 5 5 4 4 3 2 2 2 2 1 1 1 0 0 0 0 0 0 1 1 1 2 2
11 11 11 10 10 10 10 10 10 10 10 10 10 10 10 10 10 8 7 7 6 6 6 6 5 5 5 5 5 4 4 4 4 4 4 4 4 4 4 4 4 4 4 5 5 5 6 6 6 6 5 5 5 5 5 5 5 5 5 5 5 5 5 5 4 4 4 3 3 2 2 2 2 1 1 1 0 0 0 0 0 1 1 1 1
11 11 11 10 10 10 10 10 10 10 10 10 10 10 10 10 10 10 9 8 7 7 6 6 6 5 5 5 5 4 4 4 4 4 4 4 4 4 4 5 5 5 5 5 6 5 6 6 6 5 5 5 5 5 5 5 5 5 5 5 5 5 5 5 5 4 4 4 4 3 3 3 2 2 2 1 1 0 0 0 0 0 0 1 1
11 11 10 10 10 10 10 10 10 10 10 10 10 10 10 10 10 10 10 10 9 9 8 7 6 6 5 5 5 5 4 4 4 4 4 4 4 4 5 5 6 6 6 6 6 5 6 6 5 5 5 5 5 5 5 5 5 5 4 5 5 5 5 4 4 4 4 4 4 4 4 3 3 3 3 2 1 1 0 0 0 0 0 1 1
11 11 10 10 10 10 10 10 10 10 10 10 10 10 10 10 10 10 10 9 9 10 9 9 7 6 6 5 5 5 5 4 4 4 4 4 4 5 5 6 6 6 6 6 5 5 5 5 5 5 5 5 5 5 5 5 5 5 4 4 5 5 4 4 4 4 4 5 5 4 4 4 4 3 3 3 2 1 1 0 0 0 0 1 1
11 11 10 10 10 10 10 10 10 10 10 10 10 10 10 10 10 10 10 10 9 9 10 9 9 7 7 6 5 5 5 5 5 5 5 5 5 5 6 6 6 6 6 6 5 5 5 5 5 5 5 5 5 5 4 4 4 4 4 4 4 4 4 4 4 4 4 5 5 5 5 5 5 4 4 4 3 3 2 1 1 0 0 0 1
11 11 10 10 10 10 10 10 10 10 9 9 10 10 10 10 10 10 10 10 9 9 9 9 9 9 8 7 6 6 6 5 6 6 6 6 6 6 6 6 6 6 6 6 5 5 5 5 5 5 5 5 4 4 4 4 4 4 4 4 4 4 4 4 4 4 4 5 5 5 5 5 5 5 5 4 4 4 3 2 1 1 1 0 0
10 10 10 10 10 10 10 10 10 9 9 10 10 10 10 10 10 10 10 10 9 9 9 10 9 9 9 9 8 7 7 7 7 7 7 6 6 6 6 6 6 6 6 6 5 5 5 5 5 5 5 4 4 4 4 4 4 3 3 3 3 3 3 4 4 4 4 4 5 5 5 5 5 5 5 5 5 4 4 3 2 1 1 1 0
10 10 9 9 9 10 10 10 10 10 10 10 10 10 10 10 10 10 10 10 10 10 10 10 10 10 9 8 8 7 8 8 8 8 7 7 6 6 6 6 6 6 6 5 5 5 5 5 5 5 4 4 4 4 4 4 3 3 3 3 3 3 3 3 3 3 3 4 4 4 5 5 5 5 5 5 5 5 5 4 4 3 2 1 1
11 10 9 9 9 9 10 10 10 10 10 10 10 10 10 10 10 10 10 10 10 10 10 10 10 9 9 8 7 6 7 7 8 8 7 7 7 7 7 6 6 6 6 5 5 5 5 5 5 4 4 4 4 4 4 3 3 3 3 3 3 3 3 3 3 2 3 3 4 4 4 5 5 5 5 5 5 5 5 5 5 4 3 2 2
10 10 10 9 9 9 10 10 10 10 10 10 10 10 10 10 10 10 10 10 10 10 10 10 10 9 8 8 7 6 6 7 7 7 7 7 7 7 7 6 6 6 6 5 5 5 5 4 4 4 4 4 4 4 4 3 3 3 3 3 2 2 2 3 2 2 2 3 3 4 4 4 5 5 5 5 5 5 5 5 5 5 4 4 3
10 10 10 9 9 9 10 10 10 10 10 10 10 10 10 10 10 10 10 10 10 10 10 10 10 9 9 8 7 6 6 7 7 7 7 7 7 7 7 7 6 6 6 5 5 5 5 4 4 4 4 4 4 4 4 3 3 3 3 3 2 2 2 2 2 2 2 2 3 4 4 4 5 5 5 5 5 5 5 5 5 5 5 4 4
10 10 10 10 10 10 10 10 10 10 10 10 10 10 10 10 10 10 10 10 10 10 10 10 10 10 9 8 7 7 7 7 8 8 7 7 7 7 7 7 7 6 6 6 5 5 4 4 4 4 4 4 4 4 4 4 4 3 3 3 2 2 2 2 2 2 1 2 3 4 4 4 4 5 5 5 5 5 5 5 5 5 5 5 5
10 10 10 10 10 10 10 10 10 10 10 10 10 10 10 10 10 10 10 10 10 10 10 10 10 9 9 9 8 8 8 8 8 8 8 7 7 7 7 7 7 6 6 5 5 5 4 4 4 4 4 4 4 4 4 4 4 4 3 3 3 2 2 1 1 1 1 1 2 3 4 4 4 4 4 5 5 5 5 5 5 5 5 5 5
10 10 10 10 10 11 11 10 10 10 10 10 10 10 10 10 10 10 10 10 10 10 10 10 10 9 9 9 9 9 9 9 8 8 8 8 7 7 7 7 7 6 6 6 5 5 4 4 4 4 3 3 3 4 4 4 4 4 4 3 3 2 2 1 1 1 2 1 2 2 3 4 4 4 3 4 4 5 5 5 5 5 5 5 5
10 10 10 10 10 10 11 11 10 10 10 10 10 10 11 11 11 10 10 10 10 10 10 10 10 10 10 9 9 9 9 9 9 8 8 8 8 7 7 7 6 6 6 6 5 5 5 4 4 4 3 3 3 3 4 4 4 4 4 4 3 2 2 2 1 1 2 1 2 2 3 3 3 4 3 3 4 4 5 5 5 5 6 6 5
10 10 10 10 10 10 11 11 10 10 10 10 10 10 10 10 11 10 10 10 10 10 10 10 10 10 10 10 9 9 9 9 9 9 8 8 8 7 7 7 6 6 6 6 5 5 5 5 4 4 4 4 3 3 4 4 4 4 4 4 3 2 2 2 2 2 2 2 2 2 2 2 3 3 3 3 3 4 4 4 5 5 6 6 6
10 10 10 10 10 11 11 11 11 10 10 10 10 10 10 10 10 10 10 10 10 10 10 10 10 10 10 10 10 9 9 9 9 9 9 8 8 8 7 7 6 6 6 6 5 5 5 5 4 4 4 4 4 4 4 4 4 4 4 4 3 3 2 2 2 2 2 2 2 2 2 2 2 2 3 3 3 3 3 4 4 5 6 6 5
10 10 10 10 10 10 10 11 11 11 11 11 11 11 11 10 10 10 10 10 10 10 10 10 10 10 10 10 10 10 9 9 9 9 9 9 8 8 8 7 6 6 5 5 5 5 5 5 5 4 4 4 4 4 4 4 4 4 4 3 3 3 3 2 2 2 2 2 2 2 2 2 2 2 2 3 3 3 3 3 4 5 6 6 5
10 10 10 10 10 10 11 11 11 11 11 11 11 11 11 11 11 11 11 11 10 11 10 10 10 10 10 10 10 10 10 9 9 9 9 9 9 8 8 7 7 6 6 6 5 5 5 5 5 5 5 4 4 4 4 4 4 4 4 3 3 3 3 3 2 2 2 2 2 2 2 2 2 2 2 2 2 3 3 3 4 4 5 6 5
Height
863 864 864 865 865 865 865 865 865 866 866 866 866 866 867 866 866 866 865 864 864 863 863 862 862 861 861 860 859 858 857 856 855 854 853 852 850 849 848 847 846 844 843 841 840 838 837 835 834 833 831 830 828 826 824 823 821 819 817 814 812 810 807 804 799 791 785 784 780 776 773 771 767 764 763 761 760 758 757 757 757 757 757 757 757
864 865 865 866 866 866 866 866 867 867 867 867 867 867 868 867 867 867 866 866 865 865 864 864 863 863 862 861 860 859 858 857 856 855 854 852 851 850 849 847 846 845 843 842 840 839 837 836 834 833 832 830 829 827 825 823 821 819 817 815 811 809 807 804 800 793 785 781 779 775 771 770 766 762 761 760 758 756 755 754 753 753 753 754 754
865 866 866 867 867 867 868 868 868 868 868 868 868 869 869 869 869 868 867 867 866 866 866 865 865 864 863 862 861 861 860 858 857 856 855 853 852 851 850 848 847 845 844 843 841 840 838 836 835 834 832 831 829 827 825 823 821 819 817 815 812 809 807 804 800 795 788 781 777 774 770 768 765 761 759 757 755 754 753 751 750 749 749 749 750
866 867 867 867 868 868 868 869 869 869 869 870 870 870 870 870 870 869 869 869 868 867 867 866 866 865 864 864 863 862 861 859 858 857 856 854 853 852 850 849 848 846 845 844 842 840 839 837 836 834 833 831 829 828 826 824 821 819 817 814 812 808 806 804 800 796 790 782 777 774 770 766 763 760 757 754 752 751 750 748 746 745 745 745 745
867 867 868 868 868 869 869 870 870 870 871 871 871 872 872 871 871 871 870 870 869 869 868 867 867 866 865 865 864 863 862 861 860 858 857 855 854 853 851 850 849 847 846 844 843 841 840 838 836 835 833 832 830 828 826 824 822 819 817 814 811 808 805 802 799 795 791 784 777 772 769 765 760 758 756 752 748 746 746 745 743 741 741 741 741
867 867 868 869 869 870 870 871 872 872 873 873 873 873 873 873 873 872 872 871 870 870 869 868 867 867 866 866 865 864 863 862 860 859 857 856 854 853 852 851 850 848 847 845 843 842 840 839 837 836 834 832 831 829 827 825 822 819 817 814 810 807 804 800 797 793 789 784 778 771 767 764 760 755 753 751 747 744 742 741 740 739 737 736 736
866 867 869 869 870 871 872 873 873 874 874 874 874 874 874 874 874 873 873 872 871 871 870 869 869 868 868 867 866 866 864 863 861 859 858 856 855 854 853 851 850 848 847 846 844 843 841 839 838 836 835 833 831 830 827 825 822 819 817 813 810 806 802 798 795 791 787 782 778 772 766 763 759 755 751 749 746 743 741 739 737 735 734 732 732
866 868 869 870 872 872 874 875 875 875 876 876 876 876 876 876 875 874 874 873 872 872 871 870 870 869 869 868 868 867 866 864 862 860 858 856 855 854 853 852 850 849 848 846 844 843 841 840 838 837 835 834 832 830 828 825 822 819 815 812 809 805 801 797 793 789 786 781 777 772 766 762 758 754 750 747 743 740 739 737 734 732 730 728 727
867 869 870 871 873 874 875 876 876 877 877 877 877 877 877 877 876 875 875 874 873 873 872 871 871 870 870 869 869 868 867 865 863 860 858 856 855 855 853 852 851 849 848 846 845 843 842 840 838 837 836 834 832 830 828 826 823 819 814 811 807 803 799 796 792 788 784 780 776 772 766 761 758 754 750 746 743 739 737 735 732 729 727 725 722
867 869 871 872 874 875 876 877 878 879 878 878 879 878 878 877 876 876 876 875 874 873 873 872 872 871 871 870 870 869 868 866 864 861 859 856 855 855 854 853 851 850 848 847 845 843 842 840 838 837 835 833 831 829 826 824 822 818 814 810 806 803 798 794 791 787 783 779 775 771 766 761 758 755 750 746 743 740 736 733 729 726 724 722 719
869 870 871 873 874 875 877 878 879 879 879 880 879 879 879 878 877 877 877 876 875 874 874 873 873 872 872 871 871 870 869 867 864 861 859 857 855 855 854 853 852 850 849 847 846 844 842 841 838 836 834 832 829 827 824 821 818 815 811 808 805 802 798 794 789 786 782 777 773 770 766 760 756 754 750 746 742 739 735 732 728 724 721 719 716
870 871 872 874 875 876 877 878 880 880 880 880 880 880 880 879 879 878 877 877 876 875 875 874 874 873 873 872 872 871 870 868 864 861 859 857 856 855 855 854 852 851 850 848 847 845 843 841 838 836 834 831 828 825 822 818 814 811 807 804 801 798 796 793 788 784 781 776 771 768 764 759 754 751 748 745 740 737 733 731 727 723 719 716 714
871 872 873 875 876 876 877 879 880 881 881 881 880 880 880 880 879 879 878 878 877 876 876 875 875 874 874 873 873 872 871 868 865 862 859 858 857 855 855 855 853 852 850 849 847 845 843 841 839 836 833 830 827 824 820 816 811 807 804 800 797 794 792 789 786 782 779 774 768 763 760 757 751 746 745 743 739 734 731 728 725 722 718 713 710
872 873 874 876 876 877 878 879 881 881 881 881 881 881 881 880 880 880 879 879 878 878 877 876 876 875 874 874 874 873 871 869 865 863 860 859 857 856 856 856 854 852 851 849 847 845 844 842 839 837 833 830 827 824 820 815 809 805 801 798 794 791 788 784 781 778 775 771 765 759 755 753 747 742 740 739 735 732 728 724 722 719 715 711 708
873 874 875 875 876 877 878 879 881 881 881 882 882 882 882 881 881 880 880 880 879 878 878 877 877 876 875 875 874 873 872 870 867 864 862 860 858 857 857 856 854 852 851 849 847 845 844 843 840 837 834 831 828 824 819 814 809 804 800 796 792 789 785 781 778 774 770 766 762 756 751 747 743 738 735 733 730 727 724 721 718 715 712 708 704
873 874 874 875 876 877 878 879 881 881 882 882 882 882 882 882 881 881 880 880 880 879 879 878 878 877 876 875 875 874 873 871 868 866 863 861 858 857 857 855 854 853 851 849 847 845 844 843 840 837 834 831 827 822 818 813 808 803 799 795 791 787 782 778 774 770 766 761 756 751 745 741 736 732 729 726 724 722 720 717 713 712 710 704 698
872 873 874 875 876 877 879 880 881 881 882 882 883 883 883 882 882 882 881 881 880 880 880 879 879 878 877 876 875 875 874 872 870 867 865 862 859 858 858 856 854 853 851 849 847 845 844 842 840 838 834 830 826 821 816 812 807 803 798 794 790 785 779 774 769 764 761 755 750 744 738 733 728 722 719 717 714 715 715 709 706 708 707 699 692
871 872 874 875 876 878 879 880 881 882 882 883 883 883 883 883 883 882 882 881 881 881 880 880 879 879 878 877 876 876 875 874 871 869 866 864 861 860 859 857 855 853 851 849 847 845 844 842 840 838 834 829 825 819 815 812 807 803 799 794 790 784 777 771 764 759 754 749 744 738 732 727 721 714 710 707 704 706 704 698 699 703 700 693 689
870 872 874 875 877 878 879 880 881 882 883 883 883 884 883 883 883 883 882 882 881 881 881 880 880 879 879 878 877 877 876 875 873 870 868 866 863 861 860 859 856 854 852 850 847 845 844 842 839 837 833 828 824 819 815 812 808 804 800 795 789 783 777 770 763 757 750 743 737 732 726 720 715 708 703 699 695 694 691 688 691 693 689 687 687
870 872 874 875 877 878 879 881 881 882 883 883 884 884 884 884 884 883 883 882 882 882 881 881 880 880 879 879 878 877 877 875 874 871 869 868 865 863 862 860 858 855 852 850 848 845 844 842 839 836 832 827 823 819 815 812 809 805 801 796 790 783 776 769 763 757 750 742 735 728 721 715 709 703 697 692 688 685 681 679 680 680 679 680 681
870 873 874 876 877 878 880 881 882 883 883 884 884 884 884 884 884 884 883 883 882 882 881 881 881 880 880 879 879 878 877 876 875 873 871 869 866 864 863 862 859 856 853 851 848 846 844 842 839 836 831 827 823 819 815 812 809 805 801 796 790 783 776 769 762 756 749 741 734 726 718 710 704 698 692 687 682 678 674 670 668 668 669 672 673
870 872 874 876 877 879 880 881 882 883 884 884 884 884 884 885 884 884 884 883 883 882 882 881 881 880 880 879 879 878 877 876 875 873 871 869 868 866 864 863 860 857 854 851 849 847 844 842 839 835 831 826 822 818 815 812 808 805 800 794 788 781 775 768 761 754 746 739 731 723 714 706 699 692 686 681 675 670 666 663 660 659 660 662 664
870 872 874 876 877 879 880 881 882 883 884 884 884 884 884 885 884 884 884 883 883 882 882 881 881 880 880 879 879 878 878 876 875 874 872 870 868 866 865 863 861 858 855 852 850 847 845 842 839 835 830 826 822 818 815 812 808 804 798 792 786 779 773 767 760 752 744 737 728 720 712 705 697 690 682 675 669 664 659 655 653 651 652 654 656
870 872 874 876 877 879 880 881 882 883 884 884 884 884 884 884 884 884 884 883 883 882 882 881 881 880 880 879 879 878 878 877 875 874 872 870 868 866 865 863 860 858 856 853 850 848 845 842 838 834 830 826 822 818 815 811 807 802 797 791 785 779 773 766 759 751 743 735 727 719 712 704 697 689 681 673 665 659 653 649 646 645 645 647 650
870 872 874 875 877 878 880 881 882 883 883 884 884 884 884 884 884 884 883 883 883 882 882 882 881 881 880 879 879 878 877 877 876 874 872 870 868 866 865 862 860 858 855 853 850 847 844 841 837 833 830 826 822 818 814 810 806 801 797 791 785 779 773 766 759 751 743 735 727 719 712 704 696 689 680 672 664 657 651 646 643 641 641 644 647
869 871 873 875 877 878 879 880 881 882 883 883 883 884 884 883 883 883 883 883 883 883 882 882 881 881 880 879 879 878 877 877 876 874 872 870 868 866 864 862 860 857 855 852 849 846 843 840 837 833 830 826 822 818 814 810 805 801 796 791 786 781 774 767 760 753 745 736 728 720 713 704 696 688 679 670 663 657 651 647 643 641 640 641 643
869 871 873 874 876 877 878 879 881 882 882 883 883 883 883 883 883 883 883 883 883 882 883 882 882 881 881 880 879 878 877 877 876 874 873 871 869 866 864 862 859 856 854 852 848 845 843 840 837 833 830 826 822 818 814 810 805 800 796 792 787 782 777 771 765 757 748 739 731 723 714 705 695 687 679 671 666 660 654 650 647 644 642 641 642
868 870 872 873 875 876 877 879 880 880 881 882 882 882 883 883 883 883 883 883 883 883 883 883 882 882 881 880 880 878 878 877 876 875 873 871 869 867 865 862 860 857 855 852 848 845 843 840 837 833 829 826 822 818 814 810 805 801 797 792 788 784 779 772 765 758 751 743 734 725 716 706 697 690 682 676 671 665 659 656 653 650 646 644 645
868 869 871 872 874 875 876 878 878 879 880 881 881 882 882 883 883 883 884 884 884 884 883 883 883 883 882 882 881 879 879 878 877 875 873 871 870 867 865 863 860 858 855 851 848 845 843 840 837 833 830 826 822 819 815 811 806 802 798 794 789 785 779 772 765 759 753 746 738 729 721 712 704 697 689 682 677 672 667 662 660 656 653 650 651
867 868 870 871 873 874 875 876 877 878 879 880 881 882 883 883 883 884 884 885 885 884 884 884 884 883 882 882 881 880 880 878 877 875 873 871 869 867 866 864 861 858 855 851 848 846 844 841 838 834 831 827 824 820 816 812 808 804 799 795 791 786 781 775 769 763 757 750 742 735 728 719 712 705 698 692 687 681 675 671 668 664 660 658 658
865 867 868 870 871 873 874 875 876 877 878 878 879 880 882 883 884 884 884 884 884 884 884 884 884 883 883 882 881 880 879 878 876 874 872 870 869 867 865 863 860 857 854 851 848 847 844 841 838 835 832 829 826 822 818 814 810 806 801 797 792 788 783 778 772 766 760 753 747 740 734 727 720 714 708 702 696 690 684 680 676 671 668 666 666
864 865 867 869 871 872 873 873 875 876 877 878 878 879 879 881 882 883 884 884 884 884 884 883 883 883 882 882 881 880 879 877 876 874 872 870 868 866 864 862 860 857 854 851 850 848 845 842 838 836 833 830 827 824 820 816 812 808 804 799 794 790 786 781 776 770 764 758 752 746 739 733 728 722 716 710 705 699 694 690 685 680 677 675 675
862 864 866 867 870 871 872 872 874 875 876 877 878 878 878 878 879 881 882 882 883 883 883 882 882 882 882 881 880 879 878 877 875 873 872 870 868 866 863 861 859 857 854 852 851 849 846 843 840 837 834 832 828 825 822 818 814 811 807 802 798 793 789 785 779 773 767 761 757 751 745 740 734 728 723 718 713 709 704 699 694 690 687 686 685
861 863 865 866 868 870 871 871 873 874 874 876 876 877 877 877 878 878 879 880 880 881 881 881 881 881 881 880 879 878 877 876 875 873 872 870 867 865 863 860 858 857 855 853 851 849 846 844 841 839 836 833 830 827 824 820 816 813 809 805 801 797 792 788 782 776 770 765 761 756 751 746 740 735 730 726 721 717 712 708 704 700 698 697 696
860 862 864 866 867 868 869 871 871 872 873 874 875 876 876 877 878 878 878 878 878 878 879 879 879 879 879 879 878 878 877 876 875 873 871 869 867 864 862 860 859 857 855 854 852 850 847 845 843 840 837 835 832 829 825 822 819 815 812 808 804 800 795 790 785 780 775 770 765 761 756 752 747 742 738 733 729 724 720 717 714 711 709 708 706
859 861 863 865 866 867 868 869 870 871 872 873 874 875 875 876 877 877 877 877 877 877 877 877 878 878 878 877 877 877 876 875 874 873 871 869 867 864 862 861 860 858 856 854 853 851 848 846 844 842 839 836 834 831 827 824 821 818 815 811 807 803 799 794 790 785 779 775 770 765 761 757 752 748 744 740 736 733 730 727 725 722 720 717 715
858 860 862 864 865 866 867 869 869 870 872 872 873 874 874 875 876 876 876 876 876 876 876 876 876 876 875 875 875 875 875 874 873 871 870 869 866 865 864 862 860 859 857 855 853 852 849 847 845 843 840 838 835 832 830 826 823 820 817 814 811 807 803 799 794 789 784 779 775 770 766 762 758 754 750 746 743 741 738 736 734 731 729 727 724
857 859 861 863 864 865 867 868 869 870 871 872 872 873 873 874 874 874 874 875 875 875 875 874 874 874 874 873 874 874 873 873 871 870 869 868 867 866 864 863 861 859 858 856 854 852 850 848 846 844 842 840 837 834 832 829 825 822 819 816 813 810 806 802 798 793 788 784 779 775 771 767 763 759 756 753 750 748 746 744 741 739 738 735 733
856 858 860 862 864 865 866 867 868 870 871 871 871 872 872 873 873 873 873 873 873 874 873 873 873 872 872 872 873 873 872 871 870 869 869 868 867 866 864 863 861 860 858 856 855 853 851 849 847 845 843 841 839 836 834 831 828 824 821 818 814 811 808 805 801 797 793 789 785 781 777 773 769 766 762 759 756 754 752 751 749 747 746 744 742
855 857 859 861 863 864 865 866 867 868 869 870 870 870 871 872 872 872 872 871 871 872 871 871 871 871 871 871 872 871 871 870 869 868 868 867 866 865 864 863 861 860 858 857 855 853 852 850 848 846 845 842 840 838 835 833 830 827 823 820 817 814 811 808 805 801 797 794 790 786 783 779 775 772 769 766 763 761 759 757 756 755 753 751 750
854 855 858 860 862 863 864 865 866 866 867 868 868 869 869 870 870 870 870 870 870 870 870 870 869 869 870 870 870 871 870 869 868 867 867 866 865 864 863 862 861 860 858 857 855 854 853 851 849 847 845 844 842 839 837 834 832 829 826 823 820 817 814 811 808 805 801 798 795 791 788 785 781 778 775 772 770 768 765 763 762 761 759 758 757
852 854 856 859 861 862 863 863 864 865 866 866 867 867 867 868 868 868 868 868 868 868 868 868 868 868 868 868 869 869 869 868 867 866 865 865 864 863 862 861 860 859 858 857 856 854 853 851 850 848 846 844 842 840 838 836 833 831 828 826 822 819 816 813 811 808 805 802 799 796 793 790 786 784 781 778 776 773 771 769 768 766 765 764 763
851 853 855 857 859 860 861 861 862 863 864 864 865 865 866 866 866 866 867 867 867 867 867 866 866 866 866 866 867 867 867 866 865 865 864 863 863 862 861 860 859 859 858 857 855 854 853 851 850 848 847 845 843 841 839 837 835 833 830 828 825 822 819 816 813 810 808 805 803 800 797 794 791 788 786 784 781 779 777 775 773 772 770 769 768
850 852 853 855 857 858 859 860 860 861 861 862 863 864 864 864 864 864 864 864 865 865 865 865 864 864 864 864 865 865 865 864 863 863 862 862 861 860 860 859 858 858 857 856 855 854 853 851 850 848 847 845 843 842 840 838 836 834 832 830 827 825 822 819 816 813 810 808 805 803 801 799 796 794 791 789 787 784 782 781 779 777 775 774 773
849 850 852 853 854 856 856 857 858 859 860 861 861 861 862 862 862 862 862 862 862 862 863 863 863 863 863 862 862 862 862 861 861 861 860 860 859 859 858 857 857 856 856 855 854 853 852 851 850 848 847 845 843 842 840 838 837 835 833 831 829 827 824 822 818 816 813 810 808 806 804 802 800 798 795 793 791 789 787 786 784 782 780 780 779
847 848 850 851 852 853 854 855 856 857 857 858 858 858 859 859 859 859 859 860 860 860 860 860 860 860 860 860 860 860 859 859 859 858 858 858 857 857 856 856 855 855 854 853 853 852 851 850 849 847 846 845 843 842 840 838 837 835 834 832 831 829 826 824 821 818 816 813 810 809 807 804 803 801 799 797 795 793 792 790 789 787 785 784 783
845 847 848 849 850 851 852 852 853 854 855 855 855 856 856 856 856 856 857 857 858 858 858 858 858 857 858 858 857 857 857 857 857 856 856 856 855 855 854 854 853 853 852 852 851 850 849 848 847 846 845 844 842 841 840 838 837 836 834 833 831 829 827 825 822 820 818 815 813 812 810 807 805 804 802 800 798 797 795 794 792 791 789 788 787
843 844 845 846 847 848 849 850 851 851 852 852 853 853 853 853 854 854 854 854 855 855 855 855 855 855 855 855 855 855 855 854 854 854 853 853 853 852 852 851 851 851 850 850 849 848 848 847 846 845 844 843 841 840 839 838 837 835 834 833 831 829 827 825 823 821 819 816 815 814 812 810 808 806 804 803 801 799 798 796 795 793 792 791 790
841 842 843 844 845 845 846 847 848 848 849 849 850 850 851 851 851 851 851 851 851 852 852 852 852 852 851 852 852 852 852 852 851 851 851 850 850 850 849 849 849 848 848 847 847 846 845 845 844 843 842 841 840 839 838 837 836 835 834 832 831 829 827 826 824 822 820 818 817 815 814 812 810 808 807 805 803 802 800 799 797 796 795 794 793
838 839 840 841 842 843 843 844 845 845 845 846 846 846 847 847 848 848 848 848 848 848 848 849 848 849 848 848 848 848 848 848 848 848 848 847 847 847 847 847 846 846 845 845 844 844 843 842 842 841 840 839 839 838 837 836 835 834 833 831 830 828 827 825 824 822 820 819 817 816 815 813 812 810 808 807 805 804 802 801 800 798 797 796 795
836 837 838 838 839 840 841 841 842 842 842 842 843 843 843 844 844 844 845 845 845 845 845 845 845 845 845 845 845 845 845 845 845 845 844 844 844 844 844 844 843 843 843 842 842 841 841 840 839 839 838 837 837 836 835 834 833 832 831 830 829 828 826 825 823 822 821 819 818 817 816 814 813 811 810 808 807 805 804 803 802 800 798 797 797
Wind_Speed
11 11 12 12 13 14 14 14 14 14 14 14 14 13 13 13 12 13 13 13 13 13 12 12 12 13 13 14 15 15 15 15 15 14 14 14 14 13 14 15 15 14 14 15 15 14 14 15 15 16 16 17 18 17 17 17 18 17 17 18 18 17 17 18 15 16 21 21 21 24 24 24 28 31 29 26 22 21 24 28 31 32 33 33 32
11 12 12 13 14 14 14 14 14 14 14 14 14 14 13 13 13 13 13 13 13 13 13 12 13 13 13 14 14 15 15 15 15 14 14 14 14 14 14 15 15 15 15 16 16 15 15 15 16 17 17 18 19 18 18 18 19 19 19 18 19 18 18 19 18 17 21 24 23 24 24 21 22 28 31 30 27 24 25 29 31 33 33 34 33
12 12 14 14 15 15 15 15 15 15 15 15 14 14 14 13 13 13 12 12 12 12 12 13 12 12 13 13 14 15 15 15 15 15 14 14 14 14 14 14 14 15 15 16 16 16 16 16 16 17 19 19 19 18 18 20 20 20 20 19 20 21 19 19 20 20 22 25 24 23 24 22 22 26 27 28 30 28 28 32 33 33 33 35 35
13 14 15 16 15 15 15 15 15 15 15 15 14 14 13 13 13 13 12 12 12 12 12 12 12 13 13 13 14 16 16 16 16 15 15 14 14 14 14 14 14 15 15 16 16 16 16 16 16 18 19 20 20 19 19 21 22 22 22 22 21 22 21 20 21 22 23 25 25 24 24 24 24 25 24 26 30 29 29 32 34 35 34 34 35
15 15 16 16 16 16 16 15 15 15 15 14 14 13 13 13 12 12 13 13 12 12 12 12 13 13 13 14 15 16 17 17 17 16 15 14 13 13 14 14 14 14 15 15 15 16 16 16 17 19 20 20 20 20 20 22 23 22 23 24 23 23 24 23 23 23 23 25 27 26 25 24 25 24 23 23 26 26 27 29 31 34 35 35 35
16 16 16 16 16 16 15 15 15 14 14 14 13 13 13 13 12 13 13 13 13 13 12 12 13 13 14 14 15 16 17 18 18 18 16 14 13 13 13 14 14 14 14 15 15 16 16 16 18 19 20 19 20 20 21 22 22 23 24 24 25 25 26 26 24 24 25 26 27 27 26 24 24 24 22 21 22 22 23 26 27 30 32 33 34
16 16 16 16 16 15 15 14 13 13 13 13 13 13 13 13 13 12 13 13 13 13 13 13 13 13 14 14 15 16 18 19 19 19 17 16 14 13 13 14 14 13 14 15 16 17 17 17 18 19 20 20 21 21 22 23 23 24 25 25 26 26 27 27 26 25 26 25 25 25 25 24 24 24 23 23 22 22 21 22 24 27 28 29 31
16 16 16 16 15 15 14 13 13 13 13 13 13 13 13 13 12 12 13 13 13 13 13 13 13 13 13 14 15 16 18 20 22 22 19 17 14 12 12 13 13 14 14 15 16 17 18 18 19 19 19 20 21 22 23 23 25 27 27 27 27 28 27 26 26 26 25 24 23 24 25 25 23 24 24 23 21 20 18 18 21 25 27 28 32
16 16 16 16 15 14 13 13 12 12 13 13 13 12 12 12 13 13 13 12 13 13 13 13 13 13 13 13 14 17 19 22 25 24 21 18 14 12 12 13 14 15 15 16 17 17 19 19 19 19 19 20 22 23 23 24 26 28 30 29 29 29 27 26 26 26 25 23 23 23 24 24 23 23 23 22 21 22 22 20 21 25 28 28 30
16 16 16 16 15 14 13 12 12 12 13 13 12 12 12 12 13 13 13 12 13 13 13 13 13 13 13 13 14 17 20 24 26 23 20 17 13 12 12 13 14 15 16 17 17 19 20 20 20 20 20 22 25 24 25 28 29 29 30 30 30 29 29 28 26 26 25 24 24 24 23 24 24 24 25 25 25 26 26 24 21 23 24 23 24
16 16 16 16 15 14 13 13 13 12 12 12 12 13 13 13 13 13 13 13 13 13 13 14 13 13 13 14 14 16 21 26 27 23 19 18 15 12 12 13 14 15 17 18 18 20 21 21 22 21 22 25 27 26 28 31 32 31 31 30 29 28 29 29 29 28 27 26 25 25 24 25 27 27 26 27 27 26 26 25 23 21 19 15 15
16 16 16 15 15 14 13 13 12 12 12 13 13 13 13 13 13 13 13 13 13 13 14 13 13 13 12 13 15 17 21 27 28 24 19 19 18 14 13 13 14 16 17 18 19 20 21 22 23 23 25 27 28 29 31 33 32 32 31 30 29 28 28 28 30 30 29 29 29 28 28 29 30 29 27 27 28 28 27 26 25 23 20 17 15
16 16 15 14 14 14 14 13 12 12 12 13 13 13 12 12 12 12 12 12 13 14 14 13 13 13 12 13 15 17 22 27 29 24 19 19 19 16 14 14 14 16 18 18 19 20 21 23 24 24 27 28 28 30 33 34 33 31 29 29 29 29 28 29 29 29 29 31 31 31 31 31 32 32 30 29 30 30 29 28 26 25 25 22 20
16 16 15 14 14 14 14 14 13 12 12 13 12 12 12 12 11 12 12 12 12 13 14 14 14 13 12 12 13 17 23 28 29 24 19 18 19 16 14 14 14 16 18 18 19 20 21 22 24 26 28 29 29 33 35 34 32 31 29 29 30 30 30 30 28 28 29 30 31 33 34 33 34 36 35 33 33 33 31 30 29 28 29 27 26
16 15 15 14 14 14 14 14 13 13 13 13 12 12 11 11 11 11 11 11 11 12 13 13 13 14 13 12 12 16 22 27 29 26 20 18 18 16 13 14 15 15 17 19 19 19 20 22 24 26 28 28 30 35 38 35 32 30 30 30 30 31 31 30 29 30 30 31 32 35 36 36 37 38 37 36 35 34 33 33 33 32 32 31 30
16 15 14 14 14 14 14 14 13 13 13 12 12 11 11 10 10 10 11 11 11 11 12 13 13 14 14 13 12 14 20 26 28 28 23 19 18 17 15 14 16 16 17 19 19 20 21 21 23 26 26 27 31 37 39 36 32 30 30 30 31 32 32 31 31 32 31 32 35 37 38 40 41 42 43 42 41 39 37 36 35 32 30 28 27
16 15 14 14 14 14 14 14 13 13 12 12 11 11 10 10 10 10 10 11 10 10 11 12 12 13 14 15 13 13 17 24 27 28 27 22 18 17 17 15 16 17 17 18 19 20 20 19 22 25 25 28 34 38 39 37 33 30 31 32 33 33 34 34 33 31 31 34 37 38 39 40 42 44 45 45 45 44 41 36 34 30 26 20 18
16 15 14 14 14 14 14 13 13 13 12 11 11 10 10 9 9 9 9 10 10 10 10 11 11 12 13 15 14 12 14 21 25 26 28 26 21 18 17 17 16 17 18 18 18 19 19 18 21 25 28 31 36 38 38 38 34 31 31 33 33 33 36 37 34 32 33 36 36 36 37 36 37 38 39 40 41 42 43 42 36 30 27 22 17
16 16 15 15 15 14 14 13 13 12 11 11 10 10 9 9 8 8 8 9 9 9 9 10 11 11 11 13 14 14 13 17 23 24 25 26 24 19 17 17 17 17 18 19 19 18 17 17 20 27 31 34 36 37 37 36 33 31 32 32 32 33 37 36 33 34 38 38 37 37 37 35 32 32 33 34 34 36 42 46 41 33 30 27 23
17 17 16 15 15 14 14 13 12 12 11 10 9 9 8 8 8 8 8 9 9 9 9 9 10 10 10 11 12 14 14 15 20 22 23 24 24 20 18 18 17 16 17 20 20 18 18 17 19 27 33 34 35 36 35 35 33 31 32 32 33 37 39 34 30 35 37 36 36 39 38 35 32 30 30 29 29 30 34 40 42 39 33 29 28
18 18 17 16 15 14 13 12 12 11 10 10 9 8 8 7 7 8 8 9 9 9 8 8 8 9 9 10 10 11 14 16 18 20 22 23 23 22 19 18 18 16 17 19 19 17 18 18 20 27 33 34 35 34 33 34 32 30 32 35 35 39 40 34 31 33 34 33 36 38 36 35 34 32 30 28 28 27 28 31 37 40 36 32 30
19 18 17 16 15 14 13 12 11 10 9 9 8 8 7 7 7 7 7 8 8 9 8 8 8 8 8 8 8 8 10 14 17 19 21 21 22 22 20 20 20 17 16 18 17 16 18 19 21 28 32 33 34 32 31 32 31 30 34 38 38 38 37 33 31 33 33 34 38 39 38 39 38 36 35 34 32 29 27 27 30 37 39 36 34
19 17 16 16 14 13 13 11 10 9 8 8 7 7 6 6 6 6 6 6 6 7 8 7 8 8 7 7 8 7 7 10 14 19 21 21 20 21 20 21 22 18 16 18 16 16 18 20 23 29 31 32 32 30 28 30 31 31 35 39 38 36 33 30 31 36 37 38 40 41 41 43 40 39 39 39 37 34 29 25 25 33 40 39 36
18 17 16 15 14 13 12 11 9 9 8 7 7 6 5 4 5 5 5 5 6 6 7 7 7 8 8 7 7 8 7 8 11 17 21 20 19 19 20 21 22 19 16 17 16 16 18 22 26 28 29 30 31 27 25 29 32 31 34 38 38 35 32 29 33 39 39 39 42 42 43 44 40 39 41 38 36 34 27 20 18 25 37 38 34
18 17 16 15 14 13 12 10 9 8 8 6 6 5 4 3 3 4 4 5 5 5 6 7 7 8 8 8 7 7 8 9 10 14 18 18 17 18 18 20 22 20 17 17 18 18 20 23 26 26 26 28 28 25 24 28 31 30 33 37 37 35 34 32 34 39 40 41 44 44 45 46 42 40 42 37 32 33 29 18 11 12 25 30 28
18 17 16 15 13 12 12 10 9 8 7 5 5 4 3 3 3 3 3 3 5 5 6 7 7 8 8 8 8 8 8 10 11 13 16 16 16 17 17 19 21 20 18 18 19 18 19 22 23 23 23 25 26 25 25 28 30 31 32 35 34 35 38 37 35 37 40 42 44 44 46 50 46 43 46 42 36 37 35 23 12 2 11 16 14
17 16 15 14 13 12 11 10 9 8 7 5 5 4 3 3 2 2 2 3 3 4 5 6 7 8 8 8 9 8 9 10 12 14 15 16 16 16 16 18 20 19 18 18 19 18 18 20 21 21 21 23 24 23 24 26 29 31 32 33 32 33 38 42 40 37 38 41 42 43 48 53 51 48 49 47 41 41 38 28 19 13 12 16 17
17 16 15 14 13 12 11 10 9 8 7 6 5 4 4 2 2 3 4 4 4 4 5 6 7 7 8 9 9 9 9 10 12 13 14 15 16 17 16 18 19 18 18 18 18 17 17 18 20 20 20 22 23 24 23 25 28 30 32 33 33 33 38 44 45 41 39 41 42 42 47 54 53 51 50 48 44 43 40 32 24 20 20 22 19
16 15 14 13 12 11 11 10 9 7 7 6 5 4 3 2 3 4 4 3 3 4 5 5 7 7 7 8 9 9 9 10 11 12 12 13 15 16 16 17 18 17 18 18 16 16 16 17 19 21 21 22 24 24 24 24 26 30 32 33 34 35 37 42 45 42 40 42 41 40 44 50 51 49 49 48 45 44 42 36 27 23 24 25 22
16 15 14 13 12 12 11 10 9 7 7 7 6 5 5 3 2 3 3 3 3 3 4 5 6 7 6 6 7 8 9 10 11 12 12 12 13 14 13 14 16 16 18 18 16 15 17 19 20 21 22 22 23 24 25 24 26 30 32 32 34 35 35 37 40 40 39 40 40 39 41 44 45 45 45 44 43 42 43 39 31 27 27 25 22
16 15 14 13 12 12 11 9 9 8 7 7 7 7 7 6 4 3 3 3 3 2 3 4 5 7 7 6 6 8 9 11 11 12 12 13 14 13 12 14 16 17 17 17 16 15 18 21 22 23 22 21 21 23 24 24 25 28 31 32 34 35 35 36 38 38 38 39 38 38 39 40 40 41 41 40 40 40 41 40 34 31 30 28 25
15 14 14 13 13 12 11 9 9 8 7 7 7 7 8 8 7 5 4 3 2 2 2 2 2 4 6 6 6 6 8 10 11 11 13 13 13 12 12 14 18 19 18 16 14 15 19 21 22 23 22 21 21 23 23 24 25 26 28 31 33 34 35 36 36 36 37 36 35 36 39 39 37 38 40 40 39 39 39 39 36 33 31 30 29
15 14 13 13 13 13 11 9 9 9 8 8 8 6 6 7 7 7 7 5 4 3 1 1 1 2 3 5 6 6 7 9 10 11 13 13 13 13 13 14 16 17 16 15 14 15 18 20 20 21 21 20 21 23 23 24 24 25 26 29 32 32 33 34 35 35 36 35 33 34 38 39 38 38 38 39 40 39 37 38 39 37 33 30 28
15 14 13 13 13 13 12 10 10 9 8 8 9 7 6 5 4 4 6 7 7 6 5 3 1 1 1 2 5 6 7 8 9 11 13 14 14 14 14 14 14 14 13 14 14 15 16 17 18 19 20 21 21 22 23 24 24 24 25 27 30 31 31 32 34 34 34 33 33 34 36 38 38 37 34 35 39 40 39 40 41 38 32 28 27
15 14 13 13 12 12 12 11 10 9 9 9 9 8 6 5 4 3 3 3 3 4 6 6 3 1 2 1 2 4 5 7 8 10 12 14 15 15 13 13 13 13 13 14 15 15 15 16 18 18 19 20 21 22 22 23 24 24 24 25 28 30 30 31 33 34 32 31 32 34 34 36 38 38 34 33 36 38 38 40 41 37 31 28 27
15 14 14 14 12 11 11 11 10 10 10 9 9 8 6 6 6 5 4 3 3 3 3 4 5 4 4 3 2 3 4 5 7 9 12 14 15 14 12 13 13 13 13 14 14 15 15 16 17 18 18 19 20 21 22 23 23 23 23 23 24 27 28 29 31 32 30 30 32 33 32 34 37 38 35 33 33 33 33 34 36 36 34 31 27
14 13 14 15 13 11 11 11 10 10 10 9 8 8 7 6 6 5 5 4 3 3 4 3 4 6 7 6 4 4 5 5 6 8 11 14 14 12 10 11 12 12 12 13 14 14 15 15 16 17 18 19 20 20 21 22 23 23 23 22 22 24 26 27 30 31 30 30 32 32 32 33 34 35 34 33 33 32 32 32 31 32 35 35 30
14 13 14 15 13 12 11 11 10 10 10 9 9 8 8 7 6 6 5 5 4 4 5 4 3 5 5 5 4 4 6 7 7 6 8 10 10 9 9 10 11 11 12 12 13 14 14 14 15 16 17 18 19 19 20 22 22 23 24 23 22 23 24 26 28 30 30 29 31 32 32 32 33 33 34 34 33 32 32 32 30 28 30 32 30
14 14 14 15 14 12 12 11 11 11 11 11 10 9 8 7 6 6 6 6 6 6 6 5 5 5 4 3 3 5 6 6 6 5 6 7 7 7 8 9 9 10 11 11 12 13 13 13 14 15 16 17 18 18 19 21 22 22 23 23 23 23 24 25 27 29 28 28 30 31 31 31 32 32 33 33 32 31 31 31 29 27 26 26 27
15 15 16 17 16 13 11 11 11 12 12 11 10 10 9 8 8 7 6 6 6 6 5 5 5 5 4 3 4 5 6 6 5 5 5 6 6 7 7 8 8 9 10 10 11 11 12 13 13 14 15 16 17 18 19 20 20 21 22 23 23 24 23 23 25 27 27 27 28 29 29 30 30 31 31 31 31 31 31 29 28 28 27 25 25
15 15 17 19 18 14 12 12 12 12 12 11 10 10 10 9 9 8 7 7 7 6 6 6 6 4 4 5 6 6 7 7 6 6 6 6 6 6 7 7 7 8 9 9 10 10 11 12 12 13 14 15 15 16 17 18 19 20 21 22 23 23 23 23 24 26 26 26 26 28 28 28 28 29 30 29 29 30 30 29 28 28 28 26 25
15 15 16 19 18 15 13 13 12 12 12 11 11 11 10 9 9 9 8 8 8 7 6 6 6 5 6 7 7 7 7 8 7 7 7 7 6 6 7 7 6 7 8 8 9 9 10 11 11 12 13 14 14 15 15 17 18 19 19 21 22 22 23 23 23 24 25 24 24 26 27 27 27 27 27 28 27 27 27 28 27 26 27 26 25
15 15 16 17 18 16 14 13 12 12 12 12 11 11 10 10 10 9 8 9 9 8 7 7 6 5 6 7 8 8 8 9 8 7 7 7 7 7 7 7 6 6 7 7 7 8 9 9 10 11 12 13 14 14 14 14 16 17 18 19 20 21 22 23 23 23 23 23 23 23 25 25 25 25 25 26 26 25 25 25 25 24 24 25 25
14 15 15 16 16 16 15 13 13 12 11 11 11 11 11 11 11 10 9 10 9 9 9 8 7 6 6 7 7 8 9 8 8 8 7 7 8 8 7 7 7 6 7 7 7 7 8 9 9 10 11 12 13 13 12 12 14 14 15 17 19 20 21 22 22 22 23 23 21 21 21 22 23 23 23 23 23 24 24 24 24 23 22 22 22
14 14 15 15 15 15 15 14 13 12 11 11 11 11 12 12 12 11 10 10 10 10 10 9 8 7 7 7 7 8 8 8 8 8 8 8 8 8 8 7 7 7 7 7 7 7 8 8 9 9 10 11 12 12 12 11 12 12 13 15 17 19 20 21 20 20 22 22 20 19 20 20 20 21 22 21 21 21 21 21 21 21 20 20 20
16 15 15 15 15 15 15 14 14 14 13 13 13 12 12 12 12 12 11 11 11 11 11 10 10 9 9 9 8 8 8 8 8 8 8 9 9 8 8 8 8 8 8 8 8 8 9 9 9 9 10 10 11 11 11 11 11 11 11 12 14 16 19 20 19 18 20 21 18 18 19 18 17 19 21 21 19 19 19 19 19 19 18 18 17
16 16 16 16 15 15 15 15 14 14 14 14 14 13 13 12 12 12 12 12 12 12 12 12 11 11 10 10 10 9 9 9 9 9 9 9 9 9 9 9 9 9 9 9 9 9 9 9 9 9 10 10 10 10 10 10 10 10 10 10 12 14 18 20 19 19 19 19 16 16 17 17 16 17 19 19 18 18 17 17 16 16 16 16 15
17 17 17 17 16 16 16 15 15 15 15 15 15 14 14 14 13 12 12 13 13 13 14 13 13 13 12 12 11 11 11 10 10 10 10 10 10 10 10 9 10 10 9 9 10 10 10 10 10 10 10 10 10 10 10 9 10 10 9 10 12 15 17 18 19 20 21 18 14 14 16 16 15 15 16 16 17 17 16 16 16 14 13 13 13
17 18 18 18 18 17 17 16 16 15 16 16 16 16 16 15 15 14 14 13 14 14 14 14 14 14 13 13 12 12 12 12 12 11 11 11 10 10 10 10 10 10 10 10 10 10 10 11 11 11 10 10 10 10 9 9 9 9 8 10 13 15 16 15 16 19 21 17 13 13 15 14 14 14 14 14 14 15 14 15 15 13 11 11 11
17 17 17 17 18 17 17 16 16 16 16 17 17 16 16 16 16 15 15 15 14 15 15 15 15 15 15 14 14 14 14 14 13 13 12 12 11 10 10 11 11 11 12 11 11 11 11 11 11 11 11 11 10 10 10 9 9 8 9 11 13 14 14 14 14 16 18 17 14 12 13 13 13 13 13 13 13 13 13 13 14 13 11 10 10
17 17 17 17 17 17 16 16 15 15 16 16 16 16 16 16 16 16 16 16 15 15 15 16 16 16 16 15 15 15 15 15 15 14 14 13 13 12 12 12 12 12 12 12 12 12 12 12 11 11 11 11 11 11 10 9 9 9 11 13 14 13 14 14 13 13 15 15 13 12 13 13 11 11 12 12 12 11 11 11 11 10 9 8 8
Wind_Direction
101 101 99 99 99 98 97 94 92 92 91 88 86 83 78 77 74 72 71 67 63 61 56 52 47 43 40 37 34 31 27 25 23 21 19 17 14 11 8 7 6 5 3 2 1 358 355 355 357 356 356 354 351 347 344 344 341 337 335 332 326 326 325 319 311 306 308 309 307 305 307 308 306 305 305 298 283 270 265 263 259 253 248 243 243
107 107 105 104 101 100 98 95 94 92 90 86 83 81 78 75 74 73 70 66 63 59 55 51 46 43 40 37 34 31 27 25 22 19 16 13 12 9 6 4 4 2 1 1 0 359 357 357 358 358 357 354 351 349 346 344 342 337 335 333 327 326 326 321 315 309 308 310 311 308 308 309 302 301 304 302 296 284 272 269 265 257 251 244 241
114 112 111 108 105 102 98 95 94 91 88 85 82 80 78 74 73 72 69 65 61 57 54 50 47 44 42 39 34 30 27 25 21 18 15 12 9 7 4 2 1 359 359 359 358 359 359 359 1 360 357 355 351 350 348 345 342 338 334 332 327 324 324 321 315 311 307 307 309 308 307 306 301 300 300 298 298 292 278 273 269 261 253 245 240
117 116 113 111 106 102 99 96 93 90 87 84 82 80 78 75 71 69 67 65 60 57 54 50 48 46 43 40 36 31 27 23 19 16 13 10 7 5 2 1 360 359 358 358 357 358 358 358 0 359 356 354 352 350 348 345 342 338 335 332 328 324 322 319 314 310 306 304 304 304 303 302 297 296 296 296 297 294 283 275 268 260 255 247 240
118 118 114 110 105 101 98 96 92 89 87 85 82 80 78 75 72 68 67 64 61 57 54 50 48 46 45 42 37 33 28 23 19 15 10 7 6 3 2 1 360 359 358 358 358 358 358 357 357 358 356 354 352 350 347 344 341 338 335 333 329 324 320 317 313 308 304 302 302 302 300 298 296 294 293 293 293 292 286 276 266 259 256 251 243
116 116 113 108 104 101 98 95 92 89 87 85 82 80 78 76 73 69 66 64 60 56 53 51 49 47 47 44 40 35 30 24 19 14 8 5 3 2 3 2 360 359 358 358 360 359 358 358 357 357 355 353 350 347 344 342 339 335 333 331 327 324 319 315 313 309 305 301 299 300 300 299 298 296 294 290 288 287 287 282 273 263 254 248 245
115 113 111 107 103 101 98 95 93 89 87 86 84 82 79 76 74 70 66 62 58 53 52 51 50 49 48 46 42 36 31 25 19 13 7 2 359 359 2 2 0 360 360 360 2 1 360 359 358 356 354 352 349 345 342 340 336 331 330 327 324 321 318 315 313 310 306 303 300 299 300 300 299 298 296 293 286 280 277 275 273 267 255 246 243
116 114 112 108 104 102 100 96 93 91 90 89 86 83 80 77 73 69 64 60 55 52 52 52 53 52 49 48 44 37 31 25 19 12 5 359 357 357 360 1 0 360 1 2 3 3 1 360 357 354 352 350 346 343 341 338 334 330 326 324 321 318 316 313 312 310 307 304 301 301 301 301 300 298 298 297 291 286 281 275 274 274 265 250 241
119 116 113 110 107 105 102 98 96 94 93 91 88 85 82 77 72 67 62 59 56 53 53 53 54 52 50 50 45 37 31 24 19 16 10 3 359 1 2 3 3 3 2 3 3 3 1 359 356 352 349 347 344 342 340 337 333 327 323 321 319 316 314 311 309 308 307 304 302 301 301 300 300 300 299 297 294 295 294 289 282 280 277 263 248
122 119 116 114 113 110 106 103 101 98 95 93 90 87 82 77 72 68 63 60 57 54 52 52 53 51 50 49 44 38 30 22 18 19 20 17 10 4 5 7 7 6 5 4 3 2 360 357 353 351 349 348 345 342 339 336 330 323 319 317 315 312 311 309 307 306 305 303 302 301 299 297 297 297 295 293 293 293 292 289 284 282 280 274 261
126 124 122 120 119 115 111 108 104 101 98 96 92 88 82 78 73 69 65 61 58 56 54 52 51 51 51 48 44 38 27 20 18 20 29 36 30 15 8 8 9 8 7 5 2 360 358 355 353 351 349 348 345 342 339 335 329 324 320 317 314 310 306 304 304 305 303 301 299 297 295 293 293 293 291 292 292 290 289 289 287 282 276 271 267
131 128 126 124 121 118 115 111 106 104 101 97 93 89 84 79 75 71 67 64 60 57 54 53 51 50 51 49 45 36 24 19 19 23 34 41 39 29 14 8 11 10 7 6 3 360 358 354 353 351 349 346 344 342 339 335 330 326 322 321 319 315 310 305 303 302 301 299 296 294 292 290 290 289 287 289 289 287 287 287 285 283 278 270 267
133 130 127 125 124 121 118 114 109 106 102 98 95 91 86 81 75 72 69 66 62 59 55 53 50 49 48 48 45 35 24 19 20 26 36 39 37 34 20 11 12 10 8 6 3 1 358 355 353 351 348 346 345 343 340 336 332 328 326 325 323 320 317 312 306 302 299 297 295 292 290 288 287 285 284 284 284 284 284 282 279 279 277 273 270
133 133 132 131 130 126 122 119 115 111 105 100 96 92 87 81 76 72 70 67 63 59 55 52 49 47 46 47 46 35 25 22 22 27 36 38 36 32 20 13 12 9 8 7 4 2 360 356 354 350 348 347 346 345 343 338 333 330 328 327 325 323 321 317 314 310 304 299 295 292 290 288 285 283 282 280 277 277 277 276 276 275 273 276 276
138 141 140 137 134 130 127 125 120 113 107 102 98 93 87 82 75 71 69 67 64 60 56 53 49 47 44 43 45 37 27 25 27 29 32 36 35 28 17 13 12 9 8 6 4 2 0 357 354 351 349 348 346 347 346 341 334 332 331 329 327 325 322 320 317 312 306 302 297 293 291 288 284 282 281 278 274 273 273 272 272 273 273 275 276
145 145 142 138 135 133 131 128 122 116 111 106 100 93 88 83 77 73 70 68 66 62 59 55 50 48 44 41 43 40 30 28 30 30 29 32 32 23 13 12 12 9 7 6 4 2 360 357 354 353 351 348 348 351 351 346 338 335 334 332 330 327 323 321 317 312 307 305 301 297 294 290 287 284 281 277 274 271 271 271 269 267 269 270 269
146 145 142 139 136 136 134 130 124 120 115 109 103 95 90 84 79 74 69 67 66 63 61 58 54 50 46 41 40 40 33 29 30 30 29 30 28 19 12 11 9 7 6 5 3 2 1 358 356 355 351 349 350 354 354 350 344 339 337 336 333 330 328 326 322 318 316 313 309 305 301 297 292 289 284 279 274 269 264 262 260 259 260 259 262
146 144 141 139 137 137 135 131 127 123 118 113 106 99 93 86 80 75 70 67 66 64 63 60 56 53 48 43 39 39 36 30 28 29 28 29 30 21 12 10 8 6 6 4 2 1 359 356 356 354 352 352 354 356 356 353 348 343 341 339 336 334 333 331 327 324 322 321 318 314 311 306 299 294 288 282 277 269 257 251 249 250 250 247 252
146 143 140 139 138 137 134 131 128 125 120 115 109 103 95 86 81 76 71 69 66 64 64 60 56 53 50 47 42 39 36 29 27 28 27 28 30 23 13 10 7 5 5 2 359 358 356 353 353 353 355 357 358 357 356 353 348 345 344 342 336 334 334 331 326 325 326 325 325 325 322 316 308 302 296 288 281 272 260 252 245 238 238 241 244
144 141 139 138 137 135 133 131 129 126 122 118 112 105 96 88 85 78 71 68 64 62 62 59 58 54 49 50 46 41 37 29 25 27 29 28 29 25 16 10 5 1 3 2 358 356 356 354 352 353 357 359 359 357 356 354 350 347 347 344 337 335 335 332 326 327 329 326 326 329 329 326 320 313 306 296 287 281 271 259 245 232 230 235 237
142 140 139 138 137 135 134 133 131 128 125 120 114 107 98 91 87 79 73 68 62 59 58 55 56 55 48 47 47 42 39 32 26 26 29 30 31 29 20 10 3 356 357 0 358 355 356 354 351 353 356 359 358 356 355 355 353 350 349 347 342 340 340 337 331 332 332 329 329 333 334 332 329 324 318 309 299 293 286 271 249 233 226 226 228
142 141 140 139 138 136 136 136 135 132 129 125 118 112 104 94 85 78 75 69 61 56 54 50 49 50 46 43 43 39 33 27 23 24 26 28 29 27 21 14 8 359 356 359 356 353 355 352 348 351 356 357 355 354 354 355 354 352 352 351 350 349 347 341 337 337 336 334 335 338 338 336 333 330 326 321 315 309 302 287 258 235 224 222 224
145 143 141 140 139 139 140 140 139 137 136 132 124 118 111 100 87 77 69 65 61 54 50 47 44 42 40 37 36 34 26 16 10 11 15 17 17 15 12 11 9 3 357 357 353 349 351 348 345 349 353 353 351 351 353 355 354 354 354 354 354 354 350 345 343 343 340 338 339 340 340 338 334 332 330 326 324 322 314 299 270 239 226 222 222
147 145 144 143 143 144 145 145 144 141 139 137 130 122 117 108 93 80 65 57 55 50 44 42 39 35 33 29 26 24 21 12 0 358 3 6 5 2 0 1 3 1 355 351 348 344 343 342 344 347 349 348 349 350 351 354 356 358 358 359 360 358 353 348 346 345 343 341 340 339 338 337 336 335 334 329 327 330 327 312 283 243 226 221 220
150 149 149 150 150 151 150 149 148 146 146 146 140 128 123 118 96 81 70 56 50 46 41 37 33 30 27 23 19 14 11 12 5 357 357 359 358 357 356 354 357 359 353 345 344 343 340 341 343 345 346 347 349 351 352 353 356 359 360 2 4 0 355 351 347 346 343 340 339 338 337 340 340 341 344 341 338 344 348 337 307 237 215 214 215
153 154 154 155 156 156 155 155 154 154 155 152 142 133 125 117 99 78 70 58 48 43 39 33 29 28 24 18 14 12 8 8 6 359 356 356 354 354 354 352 353 356 352 344 343 343 341 341 343 345 347 348 350 353 356 355 357 1 2 3 4 0 357 355 349 345 341 338 338 340 341 345 348 351 356 359 357 357 359 357 355 63 166 169 164
158 159 158 158 161 161 160 161 160 161 164 159 146 138 132 119 103 77 56 47 43 41 40 35 27 23 21 17 11 10 12 11 5 360 356 354 352 352 353 352 352 353 352 347 344 341 339 341 345 347 348 351 352 355 358 358 1 4 3 4 4 360 357 357 354 348 343 341 341 344 348 353 356 358 1 5 5 3 4 7 15 38 86 105 97
163 164 163 162 165 167 165 168 170 166 164 165 158 145 139 127 100 79 52 31 26 29 31 33 28 19 17 17 11 7 12 13 5 357 352 350 350 350 349 351 351 349 348 347 342 338 339 343 348 350 352 355 356 357 358 358 0 3 2 3 4 0 356 357 357 354 350 348 347 349 353 357 359 1 3 6 8 8 8 10 18 35 59 75 74
169 170 168 168 170 172 170 173 179 172 162 165 165 146 134 123 96 86 71 49 44 40 36 35 28 18 15 18 14 10 10 4 355 352 350 347 348 347 345 348 350 347 349 352 346 339 342 350 352 352 354 357 356 355 355 354 355 359 360 359 1 360 355 354 355 353 353 353 351 351 355 358 360 3 6 7 9 11 13 13 18 32 51 62 63
174 174 174 175 175 177 176 175 178 176 168 168 165 152 144 139 115 100 97 96 85 64 61 57 39 28 27 22 13 9 7 358 350 352 352 348 348 348 346 352 358 358 359 360 352 345 350 356 358 356 354 354 354 352 351 349 351 355 358 358 0 1 358 355 355 355 355 356 355 355 357 359 1 6 8 7 9 14 16 17 21 33 44 51 53
177 176 179 180 177 180 182 177 175 178 175 173 171 164 158 151 143 142 135 126 125 96 72 69 52 43 39 29 10 360 0 2 360 358 356 353 353 354 352 359 7 9 6 358 350 352 360 1 0 0 357 353 352 351 348 348 350 354 357 358 1 4 3 360 357 358 359 358 357 359 1 2 4 8 10 10 11 16 19 19 22 30 37 41 43
180 178 180 179 179 185 187 180 178 182 178 176 179 178 172 164 158 160 159 140 134 123 84 77 67 49 40 35 26 6 359 5 7 5 4 2 0 359 1 6 9 9 7 360 351 356 4 4 3 3 358 353 353 352 349 349 350 353 356 359 0 3 5 2 358 358 0 359 357 359 3 4 6 9 12 14 15 17 20 21 23 28 33 37 39
184 182 181 178 180 190 193 187 185 187 182 181 184 188 189 181 168 164 166 166 168 166 138 95 75 52 36 32 30 20 11 11 11 11 12 11 9 9 8 6 4 3 3 0 357 359 4 4 3 2 358 355 354 353 352 351 351 352 356 359 1 3 3 3 1 360 360 359 358 359 3 5 8 10 12 16 18 20 21 23 25 28 31 31 33
188 186 185 182 182 189 194 192 190 191 188 186 188 191 192 185 176 178 181 181 183 185 182 176 160 10 18 23 17 13 13 12 11 15 15 13 15 17 11 3 0 1 0 0 360 359 359 359 358 357 357 356 355 354 354 353 353 353 354 358 1 2 1 2 2 359 357 358 360 1 4 7 10 11 13 16 19 20 22 24 25 26 27 29 32
188 186 184 185 186 189 193 194 193 193 191 190 191 192 189 183 188 204 209 203 206 203 191 182 184 246 307 330 355 359 0 3 9 16 16 14 17 18 10 1 1 2 2 2 2 358 356 356 356 355 356 356 355 355 356 355 356 356 354 356 360 1 360 1 0 356 356 1 2 2 6 9 11 12 14 16 18 19 20 23 25 26 27 30 34
188 183 182 188 192 191 190 193 194 194 193 192 191 192 191 193 200 209 213 217 239 253 226 194 195 227 257 263 282 315 330 342 356 3 6 9 13 11 3 360 1 360 359 1 359 356 356 357 356 356 356 356 356 357 357 357 357 358 355 355 359 0 358 359 359 356 358 4 5 4 7 10 11 12 14 17 20 21 21 24 27 30 32 33 35
188 183 181 187 192 191 189 192 192 190 190 192 194 194 196 201 209 218 222 221 230 259 263 237 220 227 227 222 240 293 311 315 328 344 353 360 4 2 356 358 359 357 358 359 356 354 355 357 357 357 357 357 356 357 358 358 358 359 357 356 358 359 357 358 359 358 1 6 7 7 10 12 13 14 16 18 21 23 25 27 28 32 35 38 38
191 187 184 186 189 190 189 189 187 187 190 195 201 202 203 206 211 221 230 230 230 248 256 251 242 241 229 213 222 265 290 291 293 311 335 346 351 351 351 355 357 356 356 356 354 353 354 356 357 357 358 359 358 357 359 359 358 359 359 357 357 357 357 360 2 2 3 7 9 9 12 14 15 16 19 21 22 24 27 29 28 29 34 37 39
195 193 188 186 188 192 192 189 187 190 197 204 208 207 207 212 219 226 234 233 229 238 249 250 249 255 254 237 238 258 275 284 287 299 319 330 336 340 345 350 354 355 354 353 353 354 353 354 356 357 358 359 359 358 359 360 359 359 360 359 358 358 359 1 3 3 2 5 7 9 11 15 16 17 21 24 24 25 29 32 31 31 33 35 39
195 193 190 190 192 196 199 196 193 195 202 208 211 210 210 217 224 231 239 241 238 241 248 253 257 255 245 245 263 276 283 289 292 297 307 314 321 330 338 344 346 349 350 351 351 353 353 352 353 355 355 356 358 358 360 360 359 360 1 1 1 360 359 360 1 1 360 1 5 7 9 13 16 17 21 24 26 27 31 35 36 37 37 37 41
192 190 190 195 198 200 203 204 203 204 207 211 214 215 216 220 228 236 243 245 243 244 245 251 260 254 237 248 267 275 277 281 286 291 297 302 307 315 325 332 337 341 344 346 347 349 350 349 349 351 351 351 353 355 357 359 360 0 2 3 2 0 359 359 359 358 357 359 3 6 8 11 16 19 20 22 25 29 32 36 39 40 41 42 45
189 186 186 194 200 202 204 207 209 210 212 215 218 222 223 225 229 237 243 243 243 245 245 250 254 244 236 253 269 270 265 270 277 281 286 290 295 302 309 314 322 329 333 336 339 341 343 343 344 346 347 348 349 351 354 356 358 359 1 3 3 1 0 359 357 356 357 358 1 6 7 9 15 19 20 21 25 28 30 32 37 42 44 46 49
188 187 185 189 197 203 206 208 209 212 214 216 219 222 226 229 232 236 238 238 238 240 243 249 254 243 234 250 268 269 261 261 265 268 274 280 286 291 294 297 305 316 320 324 328 331 334 336 338 341 344 345 345 347 350 352 355 358 360 2 3 2 1 360 357 356 356 355 357 4 9 10 13 17 19 21 24 26 27 29 33 38 43 48 51
186 189 189 190 195 202 208 211 213 213 214 216 220 223 226 230 234 236 235 233 233 234 237 244 251 249 237 240 251 256 255 256 260 266 271 275 277 280 283 285 291 298 304 309 314 319 322 325 326 329 335 339 341 343 346 349 353 357 359 1 3 3 2 1 359 356 354 353 354 0 8 11 13 15 16 19 23 25 28 31 33 34 39 44 47
192 194 195 197 200 205 209 213 217 218 218 219 222 225 226 229 233 235 235 233 231 232 235 239 244 249 248 245 245 248 254 259 263 266 267 269 271 273 275 277 280 283 289 294 299 303 309 313 315 319 324 330 336 339 341 344 351 355 359 3 5 4 2 1 359 356 356 357 356 356 2 8 12 14 13 16 20 24 27 31 35 36 38 41 43
201 202 204 205 208 211 213 216 219 220 221 223 225 226 226 228 230 233 234 234 233 235 238 240 241 243 248 252 254 256 260 263 265 264 264 266 268 269 271 273 274 276 279 283 285 288 292 297 301 306 310 316 325 332 335 339 346 351 356 2 4 3 3 4 2 359 1 3 0 356 357 2 7 11 12 12 16 20 23 28 34 38 41 43 43
208 210 213 214 215 217 219 221 223 224 225 228 229 231 231 232 232 233 233 233 235 239 242 244 245 245 246 249 253 255 258 261 264 265 265 265 265 265 265 265 267 270 273 276 278 280 283 286 289 294 297 301 308 317 325 332 338 342 349 358 360 358 3 8 8 5 7 8 2 357 359 0 1 6 9 10 10 13 16 21 28 36 40 43 45
214 216 218 219 221 222 222 223 225 227 229 231 232 233 235 237 238 239 236 234 234 237 240 242 245 247 247 249 252 254 256 259 262 264 265 265 263 263 260 257 259 264 268 270 272 274 277 279 281 285 289 291 295 302 310 320 327 332 339 347 348 350 358 7 9 9 12 12 4 359 3 4 1 2 5 6 7 9 10 11 17 27 34 38 40
219 219 220 220 221 223 224 226 227 229 231 232 233 233 234 236 238 240 241 240 238 238 240 242 244 246 248 249 250 252 254 256 257 260 263 263 262 261 259 255 253 256 261 266 268 269 271 273 274 276 280 283 286 290 296 302 312 321 326 331 335 342 351 359 4 8 13 13 6 1 4 4 2 3 5 4 5 8 8 5 5 11 23 31 31
218 218 220 220 219 221 224 227 230 232 231 230 231 232 233 234 236 238 240 242 243 243 244 245 246 248 250 252 252 253 254 255 255 257 259 260 259 260 259 256 253 254 257 262 264 265 267 269 269 270 272 274 277 281 286 292 297 304 309 315 323 333 342 347 353 2 9 11 9 4 3 2 0 3 5 5 4 6 8 4 360 0 10 22 24
217 217 219 219 219 222 224 226 230 232 231 230 233 235 235 236 238 239 240 242 244 246 247 248 249 250 252 253 254 255 255 256 257 258 259 259 259 258 256 254 253 253 256 260 262 263 264 265 265 266 267 268 270 274 279 283 285 290 299 308 315 322 330 337 342 348 358 5 7 2 359 0 360 358 1 5 5 2 1 0 356 354 359 10 15